• In Russia
  • List of Countries
  • For 7 days
  • Water Temperature
  • Satellite Maps
  • Weather Map
  • Weather Widgets
  • user-avatar
    Login

    Hourly Weather Dahab

    Today, 25 June, Tuesday

    Time Temperature Precipitation Wind Pressure Humidity
    00:00 +28°C° 0 mm 2 mps 710 mmHg 39%
    01:00 +28°C° 0 mm 2 mps 710 mmHg 41%
    02:00 +27°C° 0 mm 2 mps 710 mmHg 44%
    03:00 +27°C° 0 mm 2 mps 709 mmHg 44%
    04:00 +27°C° 0 mm 2 mps 709 mmHg 44%
    05:00 +26°C° 0 mm 2 mps 709 mmHg 44%
    06:00 +29°C° 0 mm 2 mps 710 mmHg 38%
    07:00 +31°C° 0 mm 2 mps 710 mmHg 32%
    08:00 +35°C° 0 mm 2 mps 711 mmHg 26%
    09:00 +36°C° 0 mm 3 mps 711 mmHg 24%
    10:00 +37°C° 0 mm 3 mps 711 mmHg 22%
    11:00 +38°C° 0 mm 3 mps 711 mmHg 20%
    12:00 +39°C° 0 mm 3 mps 711 mmHg 19%
    13:00 +39°C° 0 mm 3 mps 710 mmHg 19%
    14:00 +40°C° 0 mm 3 mps 710 mmHg 18%
    15:00 +40°C° 0 mm 3 mps 710 mmHg 17%
    16:00 +39°C° 0 mm 2 mps 710 mmHg 17%
    17:00 +39°C° 0 mm 2 mps 710 mmHg 16%
    18:00 +36°C° 0 mm 2 mps 710 mmHg 20%
    19:00 +33°C° 0 mm 1 mps 710 mmHg 24%
    20:00 +30°C° 0 mm 1 mps 710 mmHg 27%
    21:00 +29°C° 0 mm 1 mps 710 mmHg 29%
    22:00 +29°C° 0 mm 1 mps 711 mmHg 31%
    23:00 +28°C° 0 mm 2 mps 711 mmHg 33%

    Tomorrow, 26 June, Wednesday

    Time Temperature Precipitation Wind Pressure Humidity
    00:00 +28°C° 0 mm 2 mps 710 mmHg 32%
    01:00 +28°C° 0 mm 2 mps 710 mmHg 31%
    02:00 +28°C° 0 mm 2 mps 710 mmHg 30%
    03:00 +28°C° 0 mm 2 mps 710 mmHg 29%
    04:00 +28°C° 0 mm 3 mps 710 mmHg 29%
    05:00 +28°C° 0 mm 3 mps 710 mmHg 28%
    06:00 +31°C° 0 mm 3 mps 710 mmHg 24%
    07:00 +35°C° 0 mm 3 mps 711 mmHg 20%
    08:00 +39°C° 0 mm 3 mps 711 mmHg 16%
    09:00 +40°C° 0 mm 3 mps 711 mmHg 15%
    10:00 +42°C° 0 mm 4 mps 711 mmHg 14%
    11:00 +43°C° 0 mm 4 mps 711 mmHg 14%
    12:00 +44°C° 0 mm 4 mps 711 mmHg 13%
    13:00 +44°C° 0 mm 4 mps 711 mmHg 13%
    14:00 +44°C° 0 mm 4 mps 711 mmHg 13%
    15:00 +44°C° 0 mm 4 mps 710 mmHg 13%
    16:00 +43°C° 0 mm 3 mps 710 mmHg 14%
    17:00 +42°C° 0 mm 2 mps 710 mmHg 14%
    18:00 +39°C° 0 mm 2 mps 710 mmHg 17%
    19:00 +36°C° 0 mm 2 mps 710 mmHg 19%
    20:00 +34°C° 0 mm 2 mps 710 mmHg 22%
    21:00 +34°C° 0 mm 2 mps 710 mmHg 21%
    22:00 +32°C° 0 mm 2 mps 710 mmHg 21%
    23:00 +32°C° 0 mm 2 mps 710 mmHg 20%

    Day after tomorrow, 27 June, Thursday

    Time Temperature Precipitation Wind Pressure Humidity
    00:00 +31°C° 0 mm 2 mps 710 mmHg 22%
    01:00 +30°C° 0 mm 3 mps 710 mmHg 23%
    02:00 +30°C° 0 mm 3 mps 709 mmHg 24%
    03:00 +29°C° 0 mm 3 mps 709 mmHg 25%
    04:00 +29°C° 0 mm 3 mps 709 mmHg 26%
    05:00 +29°C° 0 mm 3 mps 709 mmHg 26%
    06:00 +33°C° 0 mm 3 mps 710 mmHg 23%
    07:00 +36°C° 0 mm 4 mps 710 mmHg 19%
    08:00 +40°C° 0 mm 4 mps 710 mmHg 15%
    09:00 +41°C° 0 mm 4 mps 710 mmHg 14%
    10:00 +42°C° 0 mm 5 mps 710 mmHg 13%
    11:00 +43°C° 0 mm 5 mps 710 mmHg 12%
    12:00 +43°C° 0 mm 5 mps 710 mmHg 11%
    13:00 +43°C° 0 mm 4 mps 709 mmHg 11%
    14:00 +44°C° 0 mm 4 mps 709 mmHg 10%
    15:00 +43°C° 0 mm 4 mps 709 mmHg 10%
    16:00 +43°C° 0 mm 4 mps 708 mmHg 10%
    17:00 +42°C° 0 mm 4 mps 708 mmHg 10%
    18:00 +40°C° 0 mm 4 mps 708 mmHg 12%
    19:00 +37°C° 0 mm 4 mps 709 mmHg 14%
    20:00 +34°C° 0 mm 3 mps 709 mmHg 15%
    21:00 +33°C° 0 mm 3 mps 709 mmHg 18%
    22:00 +33°C° 0 mm 4 mps 709 mmHg 21%
    23:00 +32°C° 0 mm 4 mps 709 mmHg 24%

    28 June, Friday

    Time Temperature Precipitation Wind Pressure Humidity
    00:00 +30°C° 0 mm 3 mps 708 mmHg 24%
    01:00 +29°C° 0 mm 3 mps 708 mmHg 25%
    02:00 +29°C° 0 mm 3 mps 707 mmHg 25%
    03:00 +28°C° 0 mm 3 mps 707 mmHg 26%
    04:00 +28°C° 0 mm 3 mps 707 mmHg 27%
    05:00 +27°C° 0 mm 3 mps 707 mmHg 28%
    06:00 +30°C° 0 mm 3 mps 708 mmHg 25%
    07:00 +34°C° 0 mm 4 mps 708 mmHg 21%
    08:00 +37°C° 0 mm 4 mps 709 mmHg 18%
    09:00 +38°C° 0 mm 4 mps 709 mmHg 17%
    10:00 +38°C° 0 mm 4 mps 709 mmHg 16%
    11:00 +40°C° 0 mm 4 mps 709 mmHg 16%
    12:00 +41°C° 0 mm 4 mps 708 mmHg 16%
    13:00 +40°C° 0 mm 3 mps 708 mmHg 15%
    14:00 +40°C° 0 mm 3 mps 707 mmHg 15%
    15:00 +40°C° 0 mm 3 mps 707 mmHg 16%
    16:00 +40°C° 0 mm 3 mps 707 mmHg 16%
    17:00 +39°C° 0 mm 3 mps 707 mmHg 17%
    18:00 +37°C° 0 mm 3 mps 707 mmHg 19%
    19:00 +35°C° 0 mm 3 mps 707 mmHg 22%
    20:00 +33°C° 0 mm 3 mps 707 mmHg 24%
    21:00 +31°C° 0 mm 3 mps 707 mmHg 26%
    22:00 +30°C° 0 mm 3 mps 708 mmHg 28%
    23:00 +30°C° 0 mm 3 mps 708 mmHg 29%

    29 June, Saturday

    Time Temperature Precipitation Wind Pressure Humidity
    00:00 +29°C° 0 mm 3 mps 708 mmHg 31%
    01:00 +29°C° 0 mm 3 mps 707 mmHg 32%
    02:00 +28°C° 0 mm 3 mps 707 mmHg 33%
    03:00 +27°C° 0 mm 3 mps 707 mmHg 35%
    04:00 +27°C° 0 mm 3 mps 707 mmHg 37%
    05:00 +26°C° 0 mm 3 mps 707 mmHg 39%
    06:00 +29°C° 0 mm 3 mps 708 mmHg 35%
    07:00 +31°C° 0 mm 3 mps 708 mmHg 30%
    08:00 +34°C° 0 mm 3 mps 708 mmHg 25%
    09:00 +35°C° 0 mm 3 mps 708 mmHg 25%
    10:00 +36°C° 0 mm 3 mps 708 mmHg 24%
    11:00 +37°C° 0 mm 4 mps 708 mmHg 23%
    12:00 +37°C° 0 mm 4 mps 708 mmHg 22%
    13:00 +38°C° 0 mm 3 mps 708 mmHg 21%
    14:00 +38°C° 0 mm 3 mps 707 mmHg 20%
    15:00 +38°C° 0 mm 3 mps 707 mmHg 20%
    16:00 +38°C° 0 mm 3 mps 707 mmHg 20%
    17:00 +37°C° 0 mm 2 mps 707 mmHg 19%
    18:00 +35°C° 0 mm 2 mps 707 mmHg 22%
    19:00 +32°C° 0 mm 2 mps 707 mmHg 24%
    20:00 +30°C° 0 mm 2 mps 708 mmHg 27%
    21:00 +30°C° 0 mm 2 mps 708 mmHg 29%
    22:00 +29°C° 0 mm 3 mps 708 mmHg 30%
    23:00 +28°C° 0 mm 3 mps 708 mmHg 32%

    30 June, Sunday

    Time Temperature Precipitation Wind Pressure Humidity
    00:00 +28°C° 0 mm 3 mps 708 mmHg 34%
    01:00 +27°C° 0 mm 2 mps 708 mmHg 35%
    02:00 +27°C° 0 mm 2 mps 707 mmHg 37%
    03:00 +26°C° 0 mm 2 mps 707 mmHg 38%
    04:00 +26°C° 0 mm 2 mps 708 mmHg 40%
    05:00 +25°C° 0 mm 2 mps 708 mmHg 42%
    06:00 +28°C° 0 mm 2 mps 708 mmHg 37%
    07:00 +30°C° 0 mm 2 mps 708 mmHg 32%
    08:00 +34°C° 0 mm 2 mps 709 mmHg 27%
    09:00 +35°C° 0 mm 3 mps 709 mmHg 26%
    10:00 +36°C° 0 mm 3 mps 709 mmHg 24%
    11:00 +37°C° 0 mm 3 mps 709 mmHg 23%
    12:00 +37°C° 0 mm 3 mps 708 mmHg 22%
    13:00 +38°C° 0 mm 3 mps 708 mmHg 22%
    14:00 +38°C° 0 mm 3 mps 707 mmHg 21%
    15:00 +38°C° 0 mm 3 mps 707 mmHg 21%
    16:00 +38°C° 0 mm 2 mps 707 mmHg 21%
    17:00 +37°C° 0 mm 2 mps 707 mmHg 21%
    18:00 +35°C° 0 mm 2 mps 707 mmHg 22%
    19:00 +32°C° 0 mm 2 mps 707 mmHg 23%
    20:00 +31°C° 0 mm 2 mps 707 mmHg 24%
    21:00 +30°C° 0 mm 2 mps 708 mmHg 25%
    22:00 +29°C° 0 mm 2 mps 708 mmHg 26%
    23:00 +29°C° 0 mm 2 mps 708 mmHg 27%
    Show more